Regional Weather Roundup
Issued by NWS Upton, NY

Current Version | Previous Version | Text Only | Print | Product List | Glossary On
Versions: 1 2 3 4 5 6 7 8 9 10 11 12 13 14 15 16 17 18 19 20 21 22 23 24 25 26 27 28 29 30 31 32 33 34 35 36 37 38 39 40 41 42 43 44 45 46 47 48 49 50
000
ASUS41 KOKX 010608
RWROKX

REGIONAL WEATHER ROUNDUP
NATIONAL WEATHER SERVICE NEW YORK NY
200 AM EDT SAT OCT 01 2016

NOTE: "FAIR" INDICATES FEW OR NO CLOUDS BELOW 12,000 FEET WITH NO
SIGNIFICANT WEATHER AND/OR OBSTRUCTIONS TO VISIBILITY.

NYZ071-072-176-178-NJZ106-104-010700-
NEW YORK CITY METRO AREA

CITY           SKY/WX    TMP DP  RH WIND       PRES   REMARKS
Central Park   CLOUDY    56  53  90 NE9G16    30.26S
LaGuardia APRT CLOUDY    58  55  90 N14       30.23S
Kennedy INTL   CLOUDY    58  55  90 N15       30.22S
Newark/Liberty DRIZZLE   57  55  93 NE13      30.23S
Bronx Bot Gard   N/A     55  52  88 SE5       30.25F
Wall St Helipt CLOUDY    59  57  94 NE12G21   30.23S
Teterboro      CLOUDY    57  52  83 N8        30.23F
$$

NYZ177-179-078>081-010700-
LONG ISLAND NEW YORK

CITY           SKY/WX    TMP DP  RH WIND       PRES   REMARKS
Farmingdale    CLOUDY    59  57  93 NE15      30.21S
MacArthur/ISP  CLOUDY    59  57  93 NE16G25   30.21S
Shirley        CLOUDY    59  58  96 N7        30.22F FOG
Riverhead      NOT AVBL
Westhampton    LGT RAIN  59  58  96 NE14      30.23S
Southampton      N/A     59  59 100 NE7       30.19R
Bridgehampton    N/A     59  57  94 E3        30.07S
East Hampton   CLOUDY    59  58  96 NE12G17   30.21F FOG
Montauk          N/A     61  60  97 NE10G24   30.22F
$$

NYZ052-065-067-010700-
HUDSON VALLEY

CITY           SKY/WX    TMP DP  RH WIND       PRES   REMARKS
White Plains   CLOUDY    55  52  89 N7        30.24S
Newburgh       CLOUDY    52  52 100 NE9       30.29S FOG
Montgomery     LGT RAIN  53  51  93 NE10      30.28S FOG
Poughkeepsie   CLOUDY    52  51  97 N6        30.29R
Albany         CLOUDY    51  47  86 N6        30.35S
$$

NJZ001-105-106-008-010-013-015-019>022-104-010700-
NEW JERSEY

CITY           SKY/WX    TMP DP  RH WIND       PRES   REMARKS
Newark/Liberty DRIZZLE   57  55  93 NE13      30.23S
Teterboro      CLOUDY    57  52  83 N8        30.23F
Caldwell       CLOUDY    56  53  90 NE6       30.25S
Morristown     CLOUDY    55  54  94 N6        30.25R
Somerville     CLOUDY    56  53  90 NE7       30.22S
Linden         NOT AVBL
Sussex         CLOUDY    53  52  96 NE7G17    30.27S FOG
Abdover          N/A     53  52  96 NE7       30.26S
Trenton        CLOUDY    56  54  93 NE13G18   30.21S FOG
Millville      CLOUDY    63  63 100 NE13      30.16S FOG
Atlantic City  CLOUDY    63  62  97 NE8       30.16S FOG
Wrightstown    DRIZZLE   59  59 100 NE8       30.08R FOG
Toms River     LGT RAIN  61  60  97 NE10G21   30.20R FOG
Belmar         CLOUDY    60  58  92 NE13      30.21R
$$

PAZ047>061-062-071-010700-
EASTERN PENNSYLVANIA

CITY           SKY/WX    TMP DP  RH WIND       PRES   REMARKS
Philadelphia   CLOUDY    59  57  93 NE14      30.19F FOG
Allentown      CLOUDY    56  52  86 NE9       30.24R
Scranton       CLOUDY    55  50  83 NE8       30.23F
$$

CTZ002-004>006-009-010-012-RIZ004-006-007-MAZ004-011-015-010700-
SOUTHERN NEW ENGLAND
 IN CT

CITY           SKY/WX    TMP DP  RH WIND       PRES   REMARKS
Bradley INTL   LGT RAIN  50  48  93 N13       30.31F FOG
Hartford       CLOUDY    51  50  96 N15G23    30.29F FOG
Danbury        CLOUDY    52  51  97 NE8       30.28S
Wtrbury/Oxford NOT AVBL
Bridgeport     CLOUDY    56  52  86 NE14G24   30.24F
Meriden        LGT RAIN  53  50  89 N10       30.28F FOG
New Haven      CLOUDY    53  52  96 N16       30.25F
Chester        LGT RAIN  55  54  94 N8G14     30.26S
Groton         CLOUDY    60  57  89 NE13      30.23F
Wilimantic     LGT RAIN  56  55  97 N8        30.29S FOG

 IN RI

CITY           SKY/WX    TMP DP  RH WIND       PRES   REMARKS
Providence     LGT RAIN  58  56  93 N10       30.28F FOG
Block Island   LGT RAIN  61  60  97 NE15G26   30.23F
Westerly       CLOUDY    59  55  87 NE10      30.24F FOG
 IN MA

CITY           SKY/WX    TMP DP  RH WIND       PRES   REMARKS
Boston         HVY RAIN  58  57  97 NE16      30.33F FOG
Worcester      LGT RAIN  50  49  96 NE12G20   30.32S FOG
Westfield      CLOUDY    49  47  93 N15       30.33F
Provincetown   LGT RAIN  58  58 100 E15G22    30.31F FOG
Nantucket      LGT RAIN  61  59  93 NE20G28   30.23F FOG
$$

ANZ330-335-338-340-345-350-353-355-010700-
COASTAL MARINE OBSERVATIONS


STATION/POSITION TIME  SKY/WX   TEMP    WIND        PRES    VSBY  WAVE
                                AIR SEA DIR/SP/G                  HT/PER
                 (UTC)          (F)     (DEG/KT/KT) (MB)    (MI)  (FT/S)
NY HARB ENTRANCE 0550            63 68   40/ 21/ 27 1021.4          9/ 8
20S FIRE ISLAND  0550            64 67   50/ 27/ 33 1020.4         10/ 8
GREAT SOUTH BAY  0530            61 63   30/ 14/ 19   N/A
23 SSW MONTAUK P 0550            63 65   60/ 23/ 29 1021.7         10/ 8
15 E BARNEGAT LI 0500               69                N/A          10/ 8
HUDSON CANYON    0450            70 71              1019.2          9/ 9
KINGS POINT      0536            58 68              1023.5
EXECUTION ROCKS  0545            60      40/ 17/ 23   N/A
CENTRAL LI SOUND 0530            59 70   30/ 16/ 21   N/A           2/ 4
EASTERN LI SOUND NOT AVBL
ROBBINS REEF     0548            58      30/ 15/ 21 1023.5
$$


>>>>>>>>>>>>>>>>>>>>>>>>>>>> KEY <<<<<<<<<<<<<<<<<<<<<<<<<<<
>                                                          <
>     SKY/WX - Sky Condition/Present Weather               <
>     TMP    - Temperature in Fahrenheit                   <
>     DP     - Dew Point in Fahrenheit                     <
>     RH     - Relative Humidity in Percent                <
>     WIND   - Direction (from) and Speed in MPH           <
>     PRES   - Mean Sea Level Pressure (inches of Hg)      <
>     WCI    - Wind Chill Index                            <
>     VSB    - VISIBILITY IN MILES                         <
>     HX     - HEAT INDEX                                  <
>     TC     - TEMPERATURE IN CELSIUS                      <
>     VRB    - VARIABLE WIND DIRECTION                     <
>                                                          <
>>>>>>>>>>>>>>>>>>>>>>>>>>>> KEY <<<<<<<<<<<<<<<<<<<<<<<<<<<



USA.gov is the U.S. government's official web portal to all federal, state and local government web resources and services.